User: anonymous   Login
Location: Unspecified
(0.0000°N, 0.0000°E)
Time: 20:06:05
(UTC+00:00)
Language:

FORMOSAT 3C - Orbit

View from above orbital plane
View from above orbital plane
View from above satellite
View from above satellite

Ground track
Ground track

The orbit data is extracted from the following two-line orbital elements,

1 29049U 06011C   17291.88334089 +.00000117 +00000-0 +62637-4 0  9992
2 29049 072.0224 012.9600 0037118 289.7734 069.9401 14.28595141600691
Epoch (UTC): 18 October 2017 21:12:00
Eccentricity: 0.0037118
inclination: 72.0224°
perigee height: 770 km
apogee height: 823 km
right ascension of ascending node: 12.9600°
argument of perigee: 289.7734°
revolutions per day: 14.28595141
mean anomaly at epoch: 69.9401°
orbit number at epoch: 60069

The dashed part of the orbit path shows where the satellite is in the earth's shadow,  

DLR